Voltar ao catálogo

STARLINK-37685

AtivoComunicaçõesVLEO
NORAD 69373·PAYLOAD·🇺🇸 United States

Lançado Jun 4, 2026 de Cape Canaveral Space Force Station

Loading…

Próximas Passagens (próximas 24 horas)

TLE

AtualizadoSource: CelesTrak SupGP

Época: Sep 15, 2026, 03:21 UTC

1 69373C 26123W   26258.14006944 -.00005021  00000+0 -14836-3 0  2585
2 69373  53.1575 166.4514 0001312  72.6159 199.3426 15.34392655    18

Acompanhe STARLINK-37685 em tempo real com AllMySat

Download on the App Store